Regional Weather Roundup
Issued by NWS

Home | Current Version | Previous Version | Graphics & Text | Print | Product List | Glossary On
Versions: 1 2 3 4 5 6 7 8 9 10 11 12 13 14 15 16 17 18 19 20 21 22 23 24 25 26 27 28 29 30 31 32 33 34 35 36 37 38 39 40 41 42 43 44 45 46 47
000
ASUS45 KSLC 300210
RWRUT

UTAH REGIONAL WEATHER ROUNDUP
NATIONAL WEATHER SERVICE SALT LAKE CITY UT
800 PM MDT MON SEP 29 2014

UTZ001>011-023>025-300300-

NORTHERN UTAH

CITY           SKY/WX    TMP DP  RH WIND       PRES   REMARKS
HILL AFB       PTCLDY    55  45  68 SW7       30.00R
LOGAN          NOT AVBL
OGDEN          PTCLDY    56  45  66 SW7       29.98R
PROVO AIRPORT  PTCLDY    54  43  66 CALM      30.02S
SALT LAKE CITY LGT RAIN  52  47  83 E6        29.99F
VERNAL         CLOUDY    54  43  66 S3        29.98R
WENDOVER       CLOUDY    57  39  51 NW14      29.99R
HEBER CITY     CLOUDY    52  39  62 SW7       30.01S
WEST JORDAN    CLOUDY    52  48  87 N8        30.02R

$$

UTZ012>022-026-027-300300-

SOUTHERN UTAH

CITY           SKY/WX    TMP DP  RH WIND       PRES   REMARKS
BRYCE CANYON   CLOUDY    48  34  58 NW8       30.11S
CEDAR CITY     CLOUDY    55  40  56 SW7       30.04R
MILFORD        CLOUDY    56  45  66 SW7       30.00S
MOAB/CYNLANDS  CLEAR     55  47  74 CALM      29.98S
PRICE          PTCLDY    53  43  68 CALM      30.02R
ST GEORGE      PTCLDY    72  37  28 W6        29.95S
KANAB            N/A     54  41  62 S3        30.06R

$$

REGIONAL REPORTS     COLORADO/ARIZONA

CITY           SKY/WX    TMP DP  RH WIND       PRES   REMARKS
CRAIG, CO      CLOUDY    48  39  71 S10       29.98F
GRAND JUNCTION PTCLDY    47  45  93 CALM      30.02S
RIFLE          CLOUDY    47  44  90 CALM      30.03S
MONTROSE       CLOUDY    47  44  90 CALM      30.07S
CORTEZ         CLEAR     51  39  63 CALM      30.07R
PAGE, AZ       NOT AVBL
GRAND CANYON   CLEAR     48  40  73 CALM      30.11F
KINGMAN        NOT AVBL
FLAGSTAFF      CLEAR     50  33  52 W6        30.13S

$$

REGIONAL REPORTS    NEVADA/IDAHO/WYOMING

CITY           SKY/WX    TMP DP  RH WIND       PRES   REMARKS
LAS VEGAS, NV  CLEAR     79  36  21 SE6       29.85S
ELY            CLOUDY    50  39  66 NW7       30.09S
ELKO           CLOUDY    51  45  79 SW5       30.06S
POCATELLO, ID  MOCLDY    53  47  79 S8        29.97S
BURLEY         LGT RAIN  51  48  89 W3        29.96S
EVANSTON, WY   PTCLDY    45  37  73 W10       30.04S
ROCK SPRINGS   MOCLDY    47  39  74 W9        29.98F

$$



USA.gov is the U.S. government's official web portal to all federal, state and local government web resources and services.